This is the latest recevied weather packets stored in our database for station/object KC5TIL. If no packets are shown the sender has not sent any weather packets the latest 1 day(s).
| Time | Temp. | Humidity | Pressure | Rain* | Wind** | Luminosity | Snow |
|---|---|---|---|---|---|---|---|
| 1778010362 | 32.78° C | 54% | 1005.5 hPa | 0 mm | 0.89 m/s, 186° | 592 W/m² | - |
| 1778010052 | 32.22° C | 54% | 1005.6 hPa | 0 mm | 0.45 m/s, 122° | 712 W/m² | - |
| 1778009750 | 32.22° C | 53% | 1005.5 hPa | 0 mm | 1.34 m/s, 162° | 665 W/m² | - |
| 1778009446 | 31.67° C | 55% | 1005.6 hPa | 0 mm | 0.89 m/s, 215° | 637 W/m² | - |
| 1778009145 | 31.67° C | 56% | 1005.7 hPa | 0 mm | 1.34 m/s, 260° | 664 W/m² | - |
| 1778008842 | 31.67° C | 55% | 1005.4 hPa | 0 mm | 1.34 m/s, 239° | 714 W/m² | - |
| 1778008540 | 31.67° C | 56% | 1005.5 hPa | 0 mm | 0.89 m/s, 217° | 661 W/m² | - |
| 1778008238 | 31.67° C | 57% | 1005.6 hPa | 0 mm | 0.45 m/s, 165° | 812 W/m² | - |
| 1778007936 | 31.67° C | 57% | 1005.5 hPa | 0 mm | 0.89 m/s, 201° | 503 W/m² | - |
| 1778007629 | 31.67° C | 57% | 1005.6 hPa | 0 mm | 0.45 m/s, 172° | 767 W/m² | - |
| 1778007326 | 31.67° C | 59% | 1005.7 hPa | 0 mm | 0 m/s | 682 W/m² | - |
| 1778007022 | 31.11° C | 58% | 1005.9 hPa | 0 mm | 0.89 m/s, 129° | 602 W/m² | - |
| 1778006719 | 31.11° C | 58% | 1005.6 hPa | 0 mm | 1.34 m/s, 191° | 654 W/m² | - |
| 1778006416 | 31.67° C | 59% | 1005.9 hPa | 0 mm | 1.34 m/s, 132° | 498 W/m² | - |
| 1778006113 | 30.56° C | 61% | 1006 hPa | 0 mm | 1.34 m/s, 259° | 716 W/m² | - |
| 1778005810 | 30.56° C | 62% | 1005.8 hPa | 0 mm | 0.89 m/s, 192° | 530 W/m² | - |
| 1778005506 | 30.56° C | 61% | 1005.9 hPa | 0 mm | 1.34 m/s, 283° | 635 W/m² | - |
| 1778005203 | 30.56° C | 60% | 1005.8 hPa | 0 mm | 1.34 m/s, 220° | 686 W/m² | - |
| 1778004900 | 30.56° C | 62% | 1005.9 hPa | 0 mm | 0.45 m/s, 136° | 602 W/m² | - |
| 1778004596 | 30° C | 62% | 1006 hPa | 0 mm | 0.89 m/s, 155° | 718 W/m² | - |
| 1778004292 | 30° C | 63% | 1006.1 hPa | 0 mm | 0.89 m/s, 170° | 565 W/m² | - |
| 1778003990 | 30° C | 62% | 1006.1 hPa | 0 mm | 1.34 m/s, 115° | 555 W/m² | - |
| 1778003685 | 30° C | 63% | 1006.1 hPa | 0 mm | 1.34 m/s, 185° | 509 W/m² | - |
| 1778003382 | 29.44° C | 63% | 1006.1 hPa | 0 mm | 0.89 m/s, 181° | 540 W/m² | - |
| 1778003079 | 29.44° C | 64% | 1006.3 hPa | 0 mm | 1.34 m/s, 228° | 568 W/m² | - |
* Rain latest hour (hover to see other rain measurements)
** Current wind speed in m/s (hover to see current wind gust speed)